Location: Hollin Hills
(38.7573°N, 77.0661°W)
Time: 11:53:27
(UTC+00:00)

ISS - Pass Details

Date: 18 April 2026
Orbit: 414 x 424 km, 51.6° (Epoch: 11 May)

Event Time Altitude Azimuth Distance (km) Brightness Sun altitude
Exits shadow 09:37:23 14° 228° (SW) 1,282 -1.9 -10.1°
Maximum altitude 09:40:13 84° 140° (SE) 425 -3.7 -9.6°
Drops below altitude 10° 09:43:36 10° 52° (NE) 1,505 0.5 -9.0°
Sets 09:45:43 0° 52° (NE) 2,374 1.8 -8.6°
